Location: Buffalo
(50.8000°N, 110.6833°W)
Time: 16:41:03
(UTC+00:00)

ISS - Visible Passes

Search period start: 02 December 2021 00:00
Search period end: 12 December 2021 00:00
Orbit: 417 x 423 km, 51.6° (Epoch: 02 December)

Date Brightness Start Highest point End Pass type
(mag) Time Alt. Az. Time Alt. Az. Time Alt. Az.
02 Dec -3.8 01:28:45 10° WNW 01:32:10 77° SSW 01:32:21 73° SSE visible
03 Dec -3.8 00:41:33 10° WNW 00:44:59 89° NNE 00:47:13 20° ESE visible
03 Dec -1.3 02:18:32 10° W 02:20:13 23° WSW 02:20:13 23° WSW visible
03 Dec -3.7 23:54:21 10° W 23:57:46 79° N 00:01:10 10° E visible
04 Dec -2.8 01:31:15 10° W 01:34:30 44° SSW 01:35:11 38° S visible
05 Dec -3.2 00:44:00 10° WNW 00:47:21 59° SSW 00:50:16 13° ESE visible
05 Dec -0.9 02:21:34 10° W 02:23:17 15° SW 02:23:17 15° SW visible
05 Dec -3.5 23:56:46 10° WNW 00:00:10 76° SSW 00:03:33 10° ESE visible
06 Dec -1.4 01:33:56 10° W 01:36:39 22° SW 01:38:35 14° S visible
07 Dec -1.9 00:46:31 10° W 00:49:34 31° SSW 00:52:36 10° SSE visible
07 Dec -2.4 23:59:11 10° W 00:02:26 43° SSW 00:05:40 10° SE visible
08 Dec -0.3 01:38:07 10° SW 01:38:34 10° SW 01:39:02 10° SW visible
09 Dec -0.7 00:49:30 10° WSW 00:51:34 15° SW 00:53:37 10° S visible
10 Dec -0.9 00:01:49 10° W 00:04:30 22° SW 00:07:11 10° SSE visible
